{"data":{"norad_id":67835,"epoch":"2026-09-19T08:12:21.640896Z","epoch_age_seconds":166528,"freshness":"FRESH","line1":"1 67835U 26033Q   26262.34191714  .00013986  00000+0  51673-3 0  9992","line2":"2 67835  42.9998 253.1319 0001379 258.0820 101.9877 15.27584223 34291","mean_motion":15.27584223,"eccentricity":0.0001379,"inclination_deg":42.9998,"raan_deg":253.1319,"arg_perigee_deg":258.082,"mean_anomaly_deg":101.9877,"bstar":0.00051673,"rev_number":3429,"period_min":94.266488113631,"perigee_km":482.09029506869,"apogee_km":483.98260670644,"semimajor_km":6861.1734508876,"source":"CELESTRAK","updated_at":"2026-09-20T09:00:43.669944Z"}}